User: anonymous   Login
Location: Caltech
(34.1382°N, 118.1253°W)
Time: 20:25:04
(UTC-08:00)
Language:

Cosmos 1125 Rocket - Orbit

View from above orbital plane
View from above orbital plane
View from above satellite
View from above satellite

Ground track
Ground track

The orbit data is extracted from the following two-line orbital elements,

1 11511U 79078B   16339.13256140  .00000038  00000-0  21977-4 0  9995
2 11511  74.0365 313.8010 0016955 247.4116 112.5244 14.36743966950601
Epoch (UTC): 04 December 2016 03:10:53
Eccentricity: 0.0016955
inclination: 74.0365°
perigee height: 757 km
apogee height: 781 km
right ascension of ascending node: 313.8010°
argument of perigee: 247.4116°
revolutions per day: 14.36743966
mean anomaly at epoch: 112.5244°
orbit number at epoch: 95060

The dashed part of the orbit path shows where the satellite is in the earth's shadow,  

DLR